| time (UTC) | temp C | wind direction | speed KPH | gust KPH | rain 1hr cm | rain 24hr cm | rain mn cm | humidity % | barometer mb |
| 20260506014003 | 16 | 122 | 9.7 | 20.9 | 0.00 | 0.00 | 0.00 | 67 | 1029.7 |
| 20260506013024 | 16 | 125 | 9.7 | 20.9 | 0.00 | 0.00 | 0.00 | 68 | 1029.8 |
| 20260506012003 | 16 | 119 | 6.4 | 14.5 | 0.00 | 0.00 | 0.00 | 69 | 1029.7 |
| 20260506011003 | 15 | 114 | 8.0 | 16.1 | 0.00 | 0.00 | 0.00 | 71 | 1029.7 |
| 20260506010004 | 15 | 116 | 8.0 | 17.7 | 0.00 | 0.00 | 0.00 | 72 | 1029.7 |
| 20260506005003 | 15 | 114 | 8.0 | 19.3 | 0.00 | 0.00 | 0.00 | 72 | 1029.7 |
| 20260506004024 | 14 | 117 | 9.7 | 27.4 | 0.00 | 0.00 | 0.00 | 73 | 1029.6 |
| 20260506003024 | 14 | 127 | 11.3 | 19.3 | 0.00 | 0.00 | 0.00 | 74 | 1029.5 |
| 20260506002024 | 13 | 127 | 6.4 | 19.3 | 0.00 | 0.00 | 0.00 | 75 | 1029.4 |
| 20260506001003 | 13 | 128 | 8.0 | 17.7 | 0.00 | 0.00 | 0.00 | 75 | 1029.3 |
| 20260506000003 | 13 | 142 | 6.4 | 14.5 | 0.00 | 0.00 | 0.00 | 76 | 1029.2 |
| 20260505235003 | 13 | 139 | 6.4 | 14.5 | 0.00 | 0.00 | 0.00 | 77 | 1029.1 |
| 20260505234003 | 12 | 144 | 8.0 | 17.7 | 0.00 | 0.00 | 0.00 | 77 | 1029.0 |
| 20260505233004 | 12 | 148 | 6.4 | 14.5 | 0.00 | 0.00 | 0.00 | 78 | 1028.9 |
| 20260505232003 | 12 | 139 | 8.0 | 19.3 | 0.00 | 0.00 | 0.00 | 78 | 1028.6 |
| 20260505231003 | 12 | 126 | 8.0 | 16.1 | 0.00 | 0.00 | 0.00 | 78 | 1028.3 |
| 20260505230003 | 12 | 120 | 8.0 | 17.7 | 0.00 | 0.00 | 0.00 | 79 | 1028.2 |
| 20260505225003 | 12 | 122 | 6.4 | 14.5 | 0.00 | 0.00 | 0.00 | 79 | 1028.1 |
| 20260505224003 | 12 | 121 | 6.4 | 16.1 | 0.00 | 0.00 | 0.00 | 79 | 1028.1 |
| 20260505223024 | 12 | 127 | 6.4 | 17.7 | 0.00 | 0.00 | 0.00 | 79 | 1028.0 |
| 20260505222003 | 12 | 123 | 6.4 | 16.1 | 0.00 | 0.00 | 0.00 | 79 | 1027.9 |
| 20260505221024 | 12 | 134 | 4.8 | 12.9 | 0.00 | 0.00 | 0.00 | 78 | 1027.9 |
| 20260505220003 | 12 | 137 | 8.0 | 16.1 | 0.00 | 0.00 | 0.00 | 78 | 1027.9 |
| 20260505215003 | 12 | 142 | 6.4 | 20.9 | 0.00 | 0.00 | 0.00 | 78 | 1027.8 |
| 20260505214003 | 12 | 135 | 8.0 | 17.7 | 0.00 | 0.00 | 0.00 | 77 | 1027.7 |
| 20260505213003 | 12 | 128 | 8.0 | 14.5 | 0.00 | 0.00 | 0.00 | 77 | 1027.5 |
| 20260505212003 | 12 | 141 | 8.0 | 22.5 | 0.00 | 0.00 | 0.00 | 77 | 1027.5 |
| 20260505211003 | 13 | 142 | 8.0 | 17.7 | 0.00 | 0.00 | 0.00 | 76 | 1027.5 |
| 20260505210003 | 13 | 142 | 8.0 | 17.7 | 0.00 | 0.00 | 0.00 | 76 | 1027.4 |
| 20260505205003 | 13 | 144 | 9.7 | 19.3 | 0.00 | 0.00 | 0.00 | 76 | 1027.3 |
| 20260505204003 | 13 | 146 | 9.7 | 19.3 | 0.00 | 0.00 | 0.00 | 75 | 1027.3 |
| 20260505203003 | 13 | 147 | 9.7 | 20.9 | 0.00 | 0.00 | 0.00 | 75 | 1027.1 |
| 20260505202003 | 13 | 147 | 11.3 | 20.9 | 0.00 | 0.00 | 0.00 | 74 | 1027.1 |
| 20260505201003 | 13 | 147 | 11.3 | 19.3 | 0.00 | 0.00 | 0.00 | 74 | 1027.0 |
| 20260505200003 | 13 | 147 | 9.7 | 19.3 | 0.00 | 0.00 | 0.00 | 74 | 1027.1 |
| 20260505195003 | 13 | 147 | 9.7 | 19.3 | 0.00 | 0.00 | 0.00 | 73 | 1027.0 |
| 20260505194025 | 13 | 149 | 9.7 | 17.7 | 0.00 | 0.00 | 0.00 | 73 | 1027.0 |
| 20260505193025 | 13 | 147 | 8.0 | 16.1 | 0.00 | 0.00 | 0.00 | 73 | 1027.1 |
| 20260505192004 | 13 | 148 | 8.0 | 12.9 | 0.00 | 0.00 | 0.00 | 72 | 1027.1 |
| 20260505191004 | 13 | 144 | 6.4 | 12.9 | 0.00 | 0.00 | 0.00 | 72 | 1027.0 |
| 20260505190004 | 13 | 140 | 4.8 | 12.9 | 0.00 | 0.00 | 0.00 | 72 | 1026.9 |
| 20260505185004 | 13 | 148 | 6.4 | 12.9 | 0.00 | 0.00 | 0.00 | 71 | 1026.9 |
| 20260505184004 | 14 | 144 | 4.8 | 11.3 | 0.00 | 0.00 | 0.00 | 70 | 1027.0 |
| 20260505183004 | 14 | 143 | 6.4 | 12.9 | 0.00 | 0.00 | 0.00 | 70 | 1027.1 |
| 20260505182004 | 14 | 144 | 6.4 | 14.5 | 0.00 | 0.00 | 0.00 | 69 | 1027.1 |
| 20260505181004 | 14 | 139 | 8.0 | 16.1 | 0.00 | 0.00 | 0.00 | 69 | 1027.1 |
| 20260505180025 | 15 | 136 | 8.0 | 14.5 | 0.00 | 0.00 | 0.00 | 68 | 1027.0 |
| 20260505175004 | 15 | 141 | 8.0 | 17.7 | 0.00 | 0.00 | 0.00 | 68 | 1026.9 |
| 20260505174004 | 15 | 136 | 8.0 | 22.5 | 0.00 | 0.00 | 0.00 | 68 | 1026.9 |
| 20260505173004 | 15 | 137 | 8.0 | 20.9 | 0.00 | 0.00 | 0.00 | 68 | 1026.9 |
| 20260505172004 | 15 | 141 | 8.0 | 17.7 | 0.00 | 0.00 | 0.00 | 68 | 1026.8 |
| 20260505171004 | 15 | 144 | 8.0 | 16.1 | 0.00 | 0.00 | 0.00 | 68 | 1026.8 |
| 20260505170025 | 15 | 145 | 9.7 | 17.7 | 0.00 | 0.00 | 0.00 | 67 | 1026.8 |
| 20260505165004 | 15 | 146 | 11.3 | 22.5 | 0.00 | 0.00 | 0.00 | 66 | 1026.7 |
| 20260505164004 | 15 | 141 | 8.0 | 19.3 | 0.00 | 0.00 | 0.00 | 67 | 1026.6 |
| 20260505163025 | 15 | 148 | 6.4 | 14.5 | 0.00 | 0.00 | 0.00 | 67 | 1026.7 |
| 20260505162004 | 15 | 138 | 4.8 | 12.9 | 0.00 | 0.00 | 0.00 | 66 | 1026.6 |
| 20260505161025 | 15 | 144 | 8.0 | 14.5 | 0.00 | 0.00 | 0.00 | 66 | 1026.4 |
| 20260505153004 | 14 | 151 | 3.2 | 8.0 | 0.00 | 0.00 | 0.00 | 71 | 1026.5 |
| 20260505152004 | 14 | 153 | 1.6 | 6.4 | 0.00 | 0.00 | 0.00 | 72 | 1026.5 |
| 20260505151025 | 14 | 153 | 1.6 | 3.2 | 0.00 | 0.00 | 0.00 | 72 | 1026.4 |
| 20260505125004 | 15 | 149 | 0.0 | 3.2 | 0.00 | 0.00 | 0.00 | 73 | 1026.4 |
| 20260505124004 | 16 | 166 | 1.6 | 6.4 | 0.00 | 0.00 | 0.00 | 73 | 1026.4 |
| 20260505123025 | 16 | 168 | 0.0 | 3.2 | 0.00 | 0.00 | 0.00 | 74 | 1026.4 |
| 20260505122004 | 15 | 151 | 0.0 | 4.8 | 0.00 | 0.00 | 0.00 | 75 | 1026.3 |
| 20260505121004 | 16 | 170 | 0.0 | 3.2 | 0.00 | 0.00 | 0.00 | 75 | 1026.3 |
| 20260505120005 | 16 | 180 | 0.0 | 3.2 | 0.00 | 0.00 | 0.00 | 75 | 1026.2 |
| 20260505115004 | 16 | 155 | 0.0 | 1.6 | 0.00 | 0.00 | 0.00 | 76 | 1026.2 |
| 20260505114004 | 16 | 165 | 0.0 | 1.6 | 0.00 | 0.00 | 0.00 | 76 | 1026.2 |
| 20260505113004 | 16 | 175 | 0.0 | 3.2 | 0.00 | 0.00 | 0.00 | 75 | 1026.2 |
| 20260505112004 | 16 | 176 | 0.0 | 3.2 | 0.00 | 0.00 | 0.00 | 75 | 1026.2 |
| 20260505111004 | 16 | 191 | 0.0 | 3.2 | 0.00 | 0.00 | 0.00 | 75 | 1026.1 |
| 20260505102004 | 17 | 198 | 1.6 | 4.8 | 0.00 | 0.00 | 0.00 | 71 | 1025.5 |
| 20260505101004 | 18 | 200 | 1.6 | 6.4 | 0.00 | 0.00 | 0.00 | 70 | 1025.4 |
| 20260505100004 | 18 | 212 | 1.6 | 6.4 | 0.00 | 0.00 | 0.00 | 69 | 1025.4 |
| 20260505095025 | 18 | 211 | 1.6 | 6.4 | 0.00 | 0.00 | 0.00 | 67 | 1025.3 |
| 20260505094004 | 18 | 209 | 1.6 | 9.7 | 0.00 | 0.00 | 0.00 | 66 | 1025.2 |
| 20260505093004 | 19 | 222 | 3.2 | 9.7 | 0.00 | 0.00 | 0.00 | 65 | 1025.1 |
| 20260505092004 | 20 | 221 | 3.2 | 11.3 | 0.00 | 0.00 | 0.00 | 64 | 1025.1 |
| 20260505091004 | 20 | 217 | 3.2 | 9.7 | 0.00 | 0.00 | 0.00 | 62 | 1025.0 |
| 20260505090004 | 21 | 210 | 3.2 | 12.9 | 0.00 | 0.00 | 0.00 | 61 | 1025.0 |
| 20260505085004 | 21 | 209 | 4.8 | 12.9 | 0.00 | 0.00 | 0.00 | 61 | 1024.9 |
| 20260505084004 | 21 | 210 | 4.8 | 16.1 | 0.00 | 0.00 | 0.00 | 59 | 1024.8 |
| 20260505083004 | 21 | 224 | 4.8 | 19.3 | 0.00 | 0.00 | 0.00 | 58 | 1024.8 |
| 20260505082004 | 22 | 215 | 4.8 | 14.5 | 0.00 | 0.00 | 0.00 | 56 | 1024.9 |
| 20260505081004 | 22 | 222 | 6.4 | 19.3 | 0.00 | 0.00 | 0.00 | 54 | 1024.8 |
| 20260505080004 | 23 | 230 | 4.8 | 11.3 | 0.00 | 0.00 | 0.00 | 54 | 1024.8 |
| 20260505075004 | 23 | 223 | 4.8 | 17.7 | 0.00 | 0.00 | 0.00 | 55 | 1024.7 |
| 20260505074025 | 23 | 248 | 3.2 | 9.7 | 0.00 | 0.00 | 0.00 | 53 | 1024.6 |
| 20260505073025 | 23 | 243 | 4.8 | 12.9 | 0.00 | 0.00 | 0.00 | 54 | 1024.7 |
| 20260505072004 | 23 | 233 | 4.8 | 11.3 | 0.00 | 0.00 | 0.00 | 54 | 1024.7 |
| 20260505071004 | 23 | 236 | 3.2 | 11.3 | 0.00 | 0.00 | 0.00 | 52 | 1024.6 |
| 20260505070025 | 23 | 240 | 4.8 | 12.9 | 0.00 | 0.00 | 0.00 | 52 | 1024.7 |
| 20260505065004 | 23 | 250 | 4.8 | 12.9 | 0.00 | 0.00 | 0.00 | 51 | 1024.6 |
| 20260505064004 | 23 | 255 | 4.8 | 9.7 | 0.00 | 0.00 | 0.00 | 51 | 1024.7 |
| 20260505063003 | 24 | 209 | 3.2 | 9.7 | 0.00 | 0.00 | 0.00 | 49 | 1024.7 |
| 20260505062025 | 24 | 223 | 3.2 | 8.0 | 0.00 | 0.00 | 0.00 | 48 | 1024.7 |
| 20260505061004 | 24 | 192 | 3.2 | 9.7 | 0.00 | 0.00 | 0.00 | 48 | 1024.7 |
| 20260505060025 | 24 | 184 | 3.2 | 9.7 | 0.00 | 0.00 | 0.00 | 43 | 1024.8 |
| 20260505055003 | 24 | 229 | 3.2 | 6.4 | 0.00 | 0.00 | 0.00 | 43 | 1024.9 |
| 20260505054004 | 23 | 139 | 3.2 | 8.0 | 0.00 | 0.00 | 0.00 | 45 | 1024.9 |
| 20260505053004 | 23 | 139 | 1.6 | 8.0 | 0.00 | 0.00 | 0.00 | 43 | 1024.9 |
| 20260505052025 | 23 | 153 | 3.2 | 11.3 | 0.00 | 0.00 | 0.00 | 46 | 1025.0 |
| 20260505051003 | 23 | 174 | 1.6 | 11.3 | 0.00 | 0.00 | 0.00 | 46 | 1025.1 |
| 20260505041004 | 21 | 145 | 4.8 | 11.3 | 0.00 | 0.00 | 0.00 | 52 | 1026.1 |
| 20260505040004 | 21 | 138 | 4.8 | 9.7 | 0.00 | 0.00 | 0.00 | 53 | 1026.2 |
| 20260505035004 | 21 | 61 | 6.4 | 11.3 | 0.00 | 0.00 | 0.00 | 51 | 1026.3 |
| 20260505034024 | 21 | 53 | 6.4 | 14.5 | 0.00 | 0.00 | 0.00 | 53 | 1026.4 |
| 20260505033003 | 21 | 70 | 6.4 | 14.5 | 0.00 | 0.00 | 0.00 | 53 | 1026.6 |
| 20260505032003 | 20 | 66 | 8.0 | 12.9 | 0.00 | 0.00 | 0.00 | 55 | 1026.6 |
| 20260505031003 | 20 | 94 | 6.4 | 14.5 | 0.00 | 0.00 | 0.00 | 56 | 1026.7 |
| 20260505030004 | 20 | 70 | 4.8 | 11.3 | 0.00 | 0.00 | 0.00 | 57 | 1026.8 |
| 20260505025004 | 20 | 72 | 6.4 | 12.9 | 0.00 | 0.00 | 0.00 | 58 | 1026.8 |
| 20260505024003 | 20 | 66 | 6.4 | 16.1 | 0.00 | 0.00 | 0.00 | 58 | 1026.9 |
| 20260505023003 | 19 | 88 | 6.4 | 11.3 | 0.00 | 0.00 | 0.00 | 60 | 1026.9 |
| 20260505022003 | 18 | 78 | 6.4 | 11.3 | 0.00 | 0.00 | 0.00 | 61 | 1026.9 |
| 20260505021003 | 18 | 89 | 6.4 | 12.9 | 0.00 | 0.00 | 0.00 | 63 | 1027.0 |
| 20260505020024 | 17 | 79 | 6.4 | 14.5 | 0.00 | 0.00 | 0.00 | 64 | 1027.0 |
| 20260505015024 | 17 | 63 | 8.0 | 16.1 | 0.00 | 0.00 | 0.00 | 65 | 1027.1 |